Find Starlink 30287

NORAD ID: 57709 Int'l Des: 2023-129 Owner: SPXS Country: US Constellation: starlink operational
LEOCIRCULAR

Current View

Loading 3D Globe...

About Starlink 30287

Starlink 30287 (NORAD 57709) is a starlink constellation satellite (v2 mini) launched Aug 27, 2023 by SPXS of US. It operates in LEO, CIRCULAR orbit with a mass of 730.00 kg.

Upcoming Passes

Passes for default location (London). Set your location on the main map for personalized predictions.

Altitude History

Loading altitude history...

Two-Line Element Set

1 57709U 23129M 26236.33286134 .00001812 00000-0 75353-4 0 9993
2 57709 43.0014 250.9590 0001340 273.7706 86.2992 15.27585718166325
Epoch: Aug 24, 2026 • Age: 27 hours

Current Status

Altitude 482.9 km
Apogee / Perigee N/A
Velocity 7.63 km/s
Sub-Earth Point 21.74°N, 133.96°E
Launch Date Aug 27, 2023
Age 2.9 years
Type internet

Technical Details

Classification Payload
Mass 730.00 kg
Dry Mass 700.00 kg
Total Mass 730.00 kg
Length 0.30 m
Diameter 4.10 m
Span 29.00 m
Shape Box + pan
Manufacturer SPXS
Bus Type Starlink V2M
Phase Status In Orbit
Owner/State SPXS/US

Most Searched